[[{"header":{"parameterUnit":"m.s-1","parameterCategory":1,"la1":30.2991,"la2":30.254,"lo1":-89.0895,"lo2":-89.0444,"dy":0.0017,"dx":0.0017,"nx":28,"ny":28,"refTime":"2025-06-15T21:00:00:Z","depth":0,"parameterNumber":2,"parameterNumberName":"U-component_of_WINDS"},"data":[0,0,0,0,0,0,0,0,0,0,0,0,0,0,0,0,0,0,0,0,0,0,0,0,0,0,0,0,0,0,0,0,0,0,0,0,0,0,0,0,0,0,0,0,0,0,0,0,0,0,0,0,0,0,0,0,0,0,1.6841,1.6841,0,1.6872,1.6872,1.6873,1.6869,1.6868,1.6868,1.6867,1.6902,1.6903,1.6904,0,0,0,0,0,0,0,0,0,0,0,0,0,1.6781,1.6783,1.6841,1.6841,1.6842,1.6872,1.6872,1.6873,1.6869,1.6868,1.6868,1.6867,1.6901,1.6903,1.6905,0,0,0,0,0,0,0,0,0,0,0,0,0,1.6809,1.6783,1.6841,1.6843,1.6844,1.6872,1.6872,1.6873,1.6869,1.6868,1.6867,1.6867,1.6901,1.6903,1.6905,1.6933,0,0,1.6911,1.6912,0,0,0,0,0,0,0,0,1.6808,1.6812,1.6843,1.6843,1.6844,1.6866,1.6864,1.6893,1.6869,1.686,1.6867,1.6866,1.689,1.6893,1.6901,1.6935,1.6936,1.6911,1.6913,1.6914,1.6914,0,0,0,0,0,0,0,1.6806,1.681,1.6853,1.6843,1.6844,1.6844,1.6847,1.6869,1.6879,1.686,1.686,1.6864,1.6891,1.6899,1.6902,1.6937,1.6911,1.6913,1.6914,1.6915,1.6995,1.6996,0,0,0,0,0,0,1.6803,1.6809,1.6852,1.6854,1.6823,1.6846,1.6849,1.6859,1.6879,1.6881,1.6864,1.6863,1.6896,1.6899,1.6903,1.6937,1.6914,1.6915,1.6917,1.6994,1.6995,1.6996,0,0,0,0,0,0,1.6802,1.6807,1.6851,1.6831,1.6837,1.6847,1.6859,1.686,1.6869,1.6882,1.6884,1.6871,1.6895,1.69,1.6925,1.6938,1.6916,1.6918,1.6993,1.6995,1.6996,1.7006,0,0,0,0,0,0,1.68,1.6806,1.6817,1.6832,1.6838,1.6872,1.686,1.6862,1.6872,1.6871,1.6888,1.689,1.6895,1.6922,1.6927,1.6941,1.692,1.6992,1.6994,1.6995,1.7004,1.7007,1.701,0,0,0,0,0,1.6798,1.6819,1.6817,1.6822,1.6851,1.6873,1.6877,1.6881,1.6873,1.6884,1.6892,1.689,1.6936,1.6925,1.6931,1.6945,1.6991,1.6993,1.6995,1.7003,1.7007,1.701,0,0,0,0,0,0,1.6806,1.6821,1.6819,1.6845,1.6858,1.6872,1.6886,1.6884,1.69,1.6899,1.6904,1.6908,1.6934,1.6942,1.6929,1.6973,1.6963,1.6966,1.6967,1.697,1.6973,1.697,1.6922,0,0,0,0,0,1.6811,1.6827,1.6839,1.6861,1.6867,1.6876,1.6885,1.6887,1.6901,1.6906,1.6917,1.6931,1.6948,1.696,1.6977,1.7006,1.7009,1.7018,1.7021,1.7023,1.7026,1.7042,1.7046,1.7003,1.7003,1.7003,0,0,1.6821,1.6831,1.6841,1.6863,1.6873,1.689,1.688,1.6899,1.6911,1.691,1.6934,1.6942,1.6958,1.6985,1.6997,1.6993,1.7039,1.7026,1.7027,1.7029,1.7044,1.7048,1.7052,1.7004,1.7004,1.7004,0,0,1.6848,1.6857,1.6877,1.6886,1.6901,1.6906,1.6911,1.6926,1.6931,1.6955,1.6954,1.697,1.7,1.7011,1.7021,1.7052,1.7051,1.7058,1.7072,1.7087,1.7091,1.7094,1.7105,1.7109,1.706,1.706,1.706,0,1.6859,1.6884,1.6887,1.6905,1.6915,1.6913,1.6933,1.6943,1.6963,1.697,1.6964,1.7002,1.7013,1.7042,1.705,1.7058,1.7064,1.7056,1.709,1.7093,1.7096,1.7106,1.7111,1.7061,1.7061,1.7061,1.7061,0,1.6897,1.6914,1.6928,1.6946,1.6958,1.6977,1.6983,1.6995,1.6996,1.7002,1.7027,1.704,1.7059,1.7066,1.7068,1.7096,1.7093,1.7088,1.7078,1.71,1.7111,1.7115,1.7062,1.7062,1.7062,1.7062,0,0,1.693,1.6949,1.6954,1.6962,1.6978,1.6992,1.7012,1.703,1.7039,1.7053,1.707,1.7095,1.7091,1.7102,1.7105,1.7119,1.7143,1.7113,1.7113,1.7118,1.7175,1.7178,1.7183,1.7142,1.7143,1.7143,1.7173,0,1.6959,1.6992,1.6995,1.7025,1.7041,1.7039,1.7056,1.7068,1.7075,1.709,1.7097,1.7115,1.7108,1.7115,1.7128,1.7137,1.7154,1.7135,1.7158,1.7159,1.7154,1.7188,1.7191,1.7219,1.7177,1.7178,1.7179,0,1.6996,1.701,1.7041,1.7055,1.7062,1.7077,1.7094,1.7108,1.7122,1.7126,1.7138,1.7139,1.716,1.7148,1.7177,1.7164,1.7174,1.7179,1.718,1.7183,1.717,1.7191,1.7228,1.7232,1.7185,1.7184,1.7184,0,1.7017,1.7044,1.7066,1.7073,1.7089,1.71,1.7108,1.7121,1.7131,1.7146,1.7153,1.7171,1.718,1.7194,1.72,1.7192,1.7229,1.7218,1.7233,1.7233,1.7241,1.724,1.728,1.7247,1.7247,1.7247,1.7247,0,1.7049,1.7068,1.7075,1.7089,1.711,1.7114,1.7136,1.7143,1.7155,1.717,1.7171,1.7185,1.7192,1.7209,1.7214,1.7237,1.7241,1.7245,1.7246,1.7245,1.7244,1.7251,1.7249,1.7248,1.7248,1.7248,1.7248,0,1.7075,1.7081,1.7105,1.7118,1.7122,1.7138,1.715,1.7163,1.7169,1.7189,1.7194,1.7204,1.7222,1.723,1.7253,1.7257,1.7283,1.7283,1.7278,1.7278,1.7293,1.7291,1.7338,1.7344,1.7308,1.7308,1.7308,0,1.7095,1.7109,1.7124,1.7134,1.7142,1.7158,1.7168,1.7173,1.7184,1.7201,1.7213,1.7231,1.7246,1.7277,1.7286,1.7304,1.7304,1.732,1.7307,1.7305,1.7304,1.7303,1.7305,1.7322,1.7322,1.7323,1.7323,0,1.7129,1.7131,1.7145,1.7161,1.7174,1.7187,1.7199,1.7208,1.7214,1.7227,1.7246,1.7257,1.7281,1.7299,1.7318,1.7326,1.7326,1.7327,1.7331,1.733,1.7326,1.7328,1.7284,1.7326,1.7325,1.7325,1.7325,1.7325,1.7152,1.7165,1.7177,1.7194,1.7204,1.7215,1.7229,1.7236,1.7251,1.727,1.7272,1.7293,1.7307,1.7331,1.734,1.7357,1.7353,1.7359,1.7361,1.7362,1.7363,1.7324,1.736,1.736,1.736,1.736,1.736,0,1.7186,1.7194,1.7209,1.7226,1.7239,1.7237,1.7251,1.7262,1.7279,1.7292,1.7306,1.7328,1.7346,1.7357,1.7375,1.7386,1.7387,1.7391,1.739,1.7392,1.7366,1.736,1.7391,1.7391,1.7391,1.7391,1.739,1.739,1.7205,1.7227,1.723,1.7257,1.7265,1.7284,1.7292,1.7303,1.7313,1.7337,1.7351,1.7358,1.737,1.7389,1.7406,1.7409,1.7415,1.742,1.7423,1.7397,1.7394,1.7391,1.7386,1.7421,1.7422,1.7448,1.7448,1.7448]},{"header":{"parameterUnit":"m.s-1","parameterCategory":1,"la1":30.2991,"la2":30.254,"lo1":-89.0895,"lo2":-89.0444,"dy":0.0017,"dx":0.0017,"nx":28,"ny":28,"refTime":"2025-06-15T21:00:00:Z","depth":0,"parameterNumber":3,"parameterNumberName":"V-component_of_WINDS"},"data":[0,0,0,0,0,0,0,0,0,0,0,0,0,0,0,0,0,0,0,0,0,0,0,0,0,0,0,0,0,0,0,0,0,0,0,0,0,0,0,0,0,0,0,0,0,0,0,0,0,0,0,0,0,0,0,0,0,0,2.3742,2.3743,0,2.3745,2.3745,2.3745,2.3737,2.3737,2.3737,2.3737,2.3739,2.3739,2.374,0,0,0,0,0,0,0,0,0,0,0,0,0,2.3733,2.3733,2.3742,2.3743,2.3743,2.3745,2.3745,2.3745,2.3737,2.3737,2.3737,2.3737,2.3739,2.3739,2.374,0,0,0,0,0,0,0,0,0,0,0,0,0,2.3736,2.3733,2.3742,2.3739,2.3739,2.3745,2.3745,2.3745,2.3738,2.3737,2.3737,2.3737,2.3739,2.3739,2.374,2.3749,0,0,2.3741,2.3741,0,0,0,0,0,0,0,0,2.3736,2.3737,2.374,2.3739,2.3739,2.374,2.3742,2.3746,2.3738,2.3738,2.3737,2.3736,2.374,2.374,2.3741,2.3749,2.3749,2.3741,2.3741,2.3741,2.3741,0,0,0,0,0,0,0,2.3736,2.3737,2.3743,2.374,2.3739,2.3738,2.3738,2.3743,2.3741,2.3738,2.3737,2.3738,2.374,2.3741,2.3741,2.3749,2.3741,2.3741,2.3741,2.3742,2.3765,2.3765,0,0,0,0,0,0,2.3736,2.3736,2.3743,2.3743,2.3737,2.3738,2.3738,2.374,2.3741,2.374,2.3738,2.3738,2.374,2.3741,2.3741,2.3752,2.3741,2.3742,2.3742,2.3765,2.3765,2.3766,0,0,0,0,0,0,2.3736,2.3737,2.3743,2.374,2.3741,2.3739,2.3741,2.3741,2.3742,2.3741,2.374,2.374,2.374,2.3741,2.3747,2.3752,2.3742,2.3742,2.3764,2.3765,2.3765,2.3774,0,0,0,0,0,0,2.3736,2.3737,2.374,2.374,2.3741,2.3749,2.3741,2.3741,2.3743,2.3742,2.3742,2.3742,2.374,2.3747,2.3748,2.3753,2.3743,2.3764,2.3764,2.3765,2.3773,2.3775,2.3776,0,0,0,0,0,2.3735,2.3742,2.374,2.3741,2.3744,2.3749,2.3749,2.3747,2.3743,2.3746,2.3746,2.3742,2.3752,2.3747,2.3748,2.3753,2.3763,2.3764,2.3765,2.3773,2.3774,2.3776,0,0,0,0,0,0,2.3742,2.3742,2.374,2.3746,2.3748,2.3748,2.3752,2.3749,2.3751,2.375,2.3747,2.3748,2.3755,2.3755,2.375,2.3763,2.3757,2.3758,2.3762,2.3764,2.3765,2.3765,2.3743,0,0,0,0,0,2.3744,2.3748,2.3748,2.3754,2.3755,2.3753,2.3755,2.3753,2.3754,2.3755,2.3755,2.3756,2.376,2.3762,2.3765,2.3774,2.3774,2.3778,2.3779,2.378,2.3781,2.3786,2.3788,2.3768,2.3768,2.3768,0,0,2.3749,2.3749,2.3752,2.3755,2.3756,2.376,2.3754,2.3758,2.3761,2.3755,2.3761,2.3762,2.3763,2.3771,2.3774,2.3771,2.3787,2.3782,2.3782,2.3783,2.3787,2.3789,2.3791,2.3769,2.3769,2.3769,0,0,2.376,2.376,2.3766,2.3767,2.3768,2.3768,2.3769,2.377,2.377,2.3776,2.3772,2.3776,2.3782,2.3783,2.3785,2.3798,2.3794,2.3799,2.3806,2.3811,2.3813,2.3814,2.3819,2.382,2.38,2.38,2.38,0,2.3765,2.3771,2.3769,2.3773,2.3775,2.3771,2.3777,2.3778,2.3781,2.3782,2.3779,2.3787,2.3788,2.3796,2.3799,2.3801,2.3802,2.3798,2.3813,2.3814,2.3815,2.382,2.3821,2.38,2.38,2.38,2.38,0,2.3778,2.3782,2.3786,2.3789,2.3791,2.3797,2.3796,2.3798,2.3797,2.3797,2.3803,2.3805,2.3808,2.381,2.3808,2.3818,2.3816,2.3813,2.3807,2.3818,2.3822,2.3823,2.3801,2.3801,2.3801,2.3801,0,0,2.3791,2.3794,2.3795,2.3797,2.3799,2.3802,2.3808,2.3812,2.3814,2.3817,2.3821,2.3827,2.3824,2.3826,2.3825,2.3829,2.384,2.3825,2.3825,2.3828,2.3851,2.3854,2.3856,2.3838,2.3838,2.3839,2.3851,0,2.3801,2.3811,2.381,2.3818,2.3823,2.382,2.3825,2.3827,2.3827,2.3831,2.3831,2.3836,2.3831,2.3833,2.3837,2.3837,2.3844,2.3837,2.3842,2.3843,2.3842,2.3858,2.386,2.3872,2.3853,2.3853,2.3853,0,2.3814,2.3817,2.3827,2.3829,2.3831,2.3835,2.3839,2.3843,2.3846,2.3846,2.3848,2.3847,2.3853,2.3847,2.3856,2.3851,2.3853,2.3854,2.3855,2.3855,2.3848,2.3858,2.3875,2.3877,2.3856,2.3856,2.3855,0,2.3823,2.383,2.3836,2.3838,2.3841,2.3844,2.3846,2.3848,2.3851,2.3854,2.3856,2.3861,2.3863,2.3866,2.3866,2.3862,2.3875,2.3869,2.3875,2.3875,2.3878,2.3877,2.3895,2.388,2.388,2.388,2.388,0,2.3834,2.384,2.3841,2.3845,2.3851,2.3851,2.3858,2.3859,2.3861,2.3866,2.3864,2.3868,2.3868,2.3872,2.3872,2.388,2.3881,2.3881,2.3881,2.3881,2.3881,2.3882,2.3881,2.388,2.388,2.388,2.388,0,2.3845,2.3845,2.3852,2.3855,2.3856,2.3861,2.3863,2.3867,2.3868,2.3874,2.3876,2.3877,2.3882,2.3883,2.3889,2.3889,2.3898,2.3897,2.3897,2.3897,2.3902,2.3902,2.3922,2.3924,2.3907,2.3908,2.3908,0,2.3852,2.3856,2.386,2.3863,2.3864,2.3869,2.3872,2.3872,2.3875,2.388,2.3883,2.3889,2.3893,2.3902,2.3904,2.3909,2.3908,2.3914,2.3908,2.3909,2.3908,2.3907,2.3908,2.3915,2.3915,2.3915,2.3916,0,2.3864,2.3864,2.3868,2.3873,2.3877,2.388,2.3884,2.3887,2.3887,2.3891,2.3897,2.39,2.3907,2.3912,2.3918,2.392,2.3918,2.3918,2.3919,2.3919,2.3919,2.3919,2.39,2.3917,2.3917,2.3917,2.3917,2.3917,2.3873,2.3877,2.388,2.3885,2.3888,2.3892,2.3896,2.3898,2.3902,2.3908,2.3908,2.3914,2.3918,2.3925,2.3927,2.3933,2.3931,2.3933,2.3933,2.3934,2.3935,2.3919,2.3934,2.3934,2.3934,2.3934,2.3934,0,2.3884,2.3887,2.3892,2.3897,2.3901,2.39,2.3904,2.3908,2.3913,2.3917,2.3922,2.3929,2.3934,2.3937,2.3943,2.3946,2.3946,2.3948,2.3947,2.3948,2.3936,2.3934,2.3948,2.3948,2.3948,2.3948,2.3948,2.3948,2.3891,2.3898,2.3899,2.3908,2.3911,2.3917,2.392,2.3923,2.3926,2.3934,2.3939,2.3941,2.3944,2.3951,2.3956,2.3957,2.3959,2.3961,2.3962,2.395,2.3949,2.3947,2.3945,2.3962,2.3962,2.3973,2.3973,2.3973]}]]